Home   Weather   Stellenbosch   Past weeks
Flag for South Africa

Past Weather in Stellenbosch, South Africa — Yesterday and Last 2 Weeks

Now
63 °F

Clear.


Feels Like: 63 °F
Forecast: 85 / 52 °F
Wind: 16 mph from South

Location: Cape Town International Airport

Current Time: Jan 19, 2019 at 11:35:26 pm

Latest Report: Jan 19, 2019 at 10:00 pm


Visibility: 10 mi

Pressure: 30.21 "Hg

Humidity: 64%

Dew Point: 50 °F

Location of StellenboschLocation

Past Weather in Stellenbosch — Graph

°F

Stellenbosch Temperature Yesterday

Maximum temperature yesterday: 72 °F (at 11:00 am)
Minimum temperature yesterday: 61 °F (at 10:00 pm)
Average temperature yesterday: 66 °F

High & Low Weather Summary for the Past Weeks

 TemperatureHumidityPressure
High86 °F (Jan 16, 3:00 pm)100% (Jan 12, 4:00 am)30.27 "Hg (Jan 12, 4:00 am)
Low52 °F (Jan 12, 3:00 am)38% (Jan 19, 2:00 pm)29.65 "Hg (Jan 11, 4:00 pm)
Average68 °F68%29.91 "Hg
* Reported Jan 4 10:00 pm — Jan 19 10:00 pm, Stellenbosch. Weather by CustomWeather, © 2019

Note: Actual official high and low records may vary slightly from our data, if they occured in-between our weather recording intervals... More about our weather records

Advertising

Stellenbosch Weather History for the Previous 24 Hours

Scroll right to see more
 ConditionsComfort  
Time TempWeatherWind HumidityBarometerVisibility
10:00 pm
Sat, Jan 19
63 °FClear.16 mph64%30.21 "Hg10 mi
9:00 pm63 °FClear.21 mph64%30.21 "Hg10 mi
8:00 pm63 °FClear.25 mph59%30.21 "Hg10 mi
7:00 pm64 °FSunny.26 mph52%30.21 "Hg10 mi
6:00 pm68 °FSunny.24 mph46%30.18 "Hg10 mi
5:00 pm68 °FSunny.24 mph46%30.21 "Hg10 mi
4:00 pm70 °FSunny.22 mph43%30.21 "Hg10 mi
3:00 pm70 °FPassing clouds.20 mph46%30.21 "HgN/A
2:00 pm72 °FPassing clouds.16 mph38%30.24 "HgN/A
1:00 pm72 °FPassing clouds.12 mph41%30.24 "HgN/A
12:00 pm70 °FPassing clouds.9 mph40%30.27 "HgN/A
11:00 am68 °FPassing clouds.10 mph40%30.24 "HgN/A
10:00 am68 °FPassing clouds.8 mph40%30.24 "HgN/A
9:00 am66 °FPassing clouds.7 mph40%30.24 "HgN/A
8:01 am64 °FPassing clouds.2 mph46%30.21 "HgN/A
7:00 am59 °FPassing clouds.3 mph59%30.21 "HgN/A
6:00 am59 °FPassing clouds.6 mph59%30.18 "HgN/A
5:00 am59 °FPassing clouds.5 mph63%30.15 "HgN/A
4:55 am59 °FPassing clouds.5 mph63%30.15 "HgN/A
4:00 am57 °FPassing clouds.3 mph67%30.15 "HgN/A
3:00 am55 °FPassing clouds.3 mph72%30.15 "HgN/A
2:00 am59 °FPassing clouds.7 mph63%30.15 "HgN/A
1:00 am61 °FPassing clouds.2 mph59%30.15 "HgN/A
12:00 am59 °FPassing clouds.3 mph68%30.15 "HgN/A
11:00 pm
Fri, Jan 18
61 °FPassing clouds.5 mph68%30.15 "HgN/A
Weather by CustomWeather, © 2019

See weather overview